Weather History for Pond Inlet, NU

Change the Weather History Date:

Monday, January 7, 2013

  Actual Average Record
Temperature  
Mean Temperature -32 °F -  
Max Temperature -29 °F -19 °F 8 °F (1999)
Min Temperature -36 °F -29 °F -40 °F (2002)
Degree Days  
Heating Degree Days 98    
Moisture  
Dew Point -39 °F    
Average Humidity 60    
Maximum Humidity 68    
Minimum Humidity 40    
Precipitation  
Precipitation 0.00 in - - ()
Sea Level Pressure  
Sea Level Pressure 29.77 in    
Wind  
Wind Speed 2 mph ()    
Max Wind Speed 6 mph    
Max Gust Speed -    
Visibility 10.4 miles    
Events      
Averages and records for this station are not official NWS values.
T = Trace of Precipitation, MM = Missing Value Source: Averaged Metar Reports

Daily Weather History Graph

Daily Weather History Graph

Search for Another Location

Airport:

Trip Planner

Search our weather history database for the weather conditions in past years. The results will help you decide how hot, cold, wet, or windy it might be!

Date:

Astronomy

Dec. 31, 1969 Rise Set
Actual Time Sun does not rise Sun does not rise
Civil Twilight 10:55 AM EST 1:41 PM EST
Nautical Twilight 8:34 AM EST 4:02 PM EST
Astronomical Twilight 7:02 AM EST 5:34 PM EST
Moon No Moon Rise No Moon Set
Length of Visible Light 2h 46m
Length of Day
0h 00m
Waning Crescent, 23% of the Moon is Illuminated
Jan 7
Waning Crescent
Jan 11
New
Jan 18
First Quarter
Jan 26
Full
Feb 3
Last Quarter

Hourly Weather History & Observations

Time (EST) Temp. Windchill Dew Point Humidity Pressure Visibility Wind Dir Wind Speed Gust Speed Precip Events Conditions
12:00 AM -36.4 °F - -43.6 °F 67% 29.69 in 9.0 mi Calm Calm - N/A   Partly Cloudy
1:00 AM -35 °F - -43 °F 45% 29.70 in 9 mi SSW 2.3 mph - -  
1:00 AM -34.6 °F - -43.6 °F 61% 29.70 in 9.0 mi SSW 2.3 mph - N/A   Clear
2:00 AM -34.6 °F - -41.8 °F 68% 29.72 in 9.0 mi SW 2.3 mph - N/A   Clear
3:00 AM -34.6 °F -47.4 °F -43.6 °F 61% 29.74 in 9.0 mi SSW 3.5 mph - N/A   Partly Cloudy
4:00 AM -33 °F - -41 °F 45% 29.75 in 9 mi SSW 3.5 mph - -  
4:00 AM -32.8 °F -45.3 °F -41.8 °F 62% 29.75 in 9.0 mi SSW 3.5 mph - N/A   Clear
5:00 AM -31.0 °F -43.3 °F -38.2 °F 68% 29.77 in 9.0 mi SSW 3.5 mph - N/A   Partly Cloudy
6:00 AM -31.0 °F -43.3 °F -40.0 °F 62% 29.78 in 9.0 mi South 3.5 mph - N/A   Clear
7:00 AM -32 °F - -39 °F 50% 29.79 in 9 mi South 4.6 mph - -  
7:00 AM -31.0 °F -46.1 °F -40.0 °F 62% 29.79 in 9.0 mi South 4.6 mph - N/A   Clear
8:00 AM -31.0 °F -43.3 °F -38.2 °F 68% 29.79 in 9.0 mi South 3.5 mph - N/A   Partly Cloudy
9:00 AM -29.2 °F -41.2 °F -36.4 °F 68% 29.80 in 9.0 mi South 3.5 mph - N/A   Clear
10:00 AM -30 °F - -39 °F 44% 29.80 in 9 mi SSE 5.8 mph - -  
10:00 AM -31.0 °F -48.4 °F -38.2 °F 68% 29.80 in 9.0 mi SSE 5.8 mph - N/A   Clear
11:00 AM -31.0 °F -46.1 °F -40.0 °F 62% 29.80 in 15.0 mi SSE 4.6 mph - N/A   Partly Cloudy
12:00 PM -31.0 °F - -38.2 °F 68% 29.80 in 15.0 mi SSW 2.3 mph - N/A   Partly Cloudy
1:00 PM -30 °F - -40 °F 40% 29.81 in 9 mi South 2.3 mph - -  
2:00 PM -29.2 °F - -36.4 °F 68% 29.81 in 15.0 mi WSW 2.3 mph - N/A   Partly Cloudy
3:00 PM -29.2 °F - -38.2 °F 62% 29.80 in 15.0 mi Calm Calm - N/A   Partly Cloudy
4:00 PM -32 °F - -39 °F 52% 29.79 in 9 mi Calm Calm - -  
4:00 PM -31.0 °F - -38.2 °F 68% 29.80 in 15.0 mi Calm Calm - N/A   Partly Cloudy
5:00 PM -31.0 °F - -38.2 °F 68% 29.78 in 15.0 mi South 2.3 mph - N/A   Clear
6:00 PM -29.2 °F - -36.4 °F 68% 29.78 in 15.0 mi SSW 2.3 mph - N/A   Clear
7:00 PM -30 °F - -38 °F 46% 29.77 in 9 mi Calm Calm - -  
7:00 PM -31.0 °F - -38.2 °F 68% 29.77 in 9.0 mi Calm Calm - N/A   Clear
8:00 PM -31.0 °F - -40.0 °F 62% 29.76 in 9.0 mi Calm Calm - N/A   Clear
9:00 PM -31.0 °F - -40.0 °F 62% 29.75 in 9.0 mi South 2.3 mph - N/A   Partly Cloudy
10:00 PM -30 °F - -38 °F 47% 29.74 in 9 mi SSE 4.6 mph - -  
10:00 PM -31.0 °F -46.1 °F -38.2 °F 68% 29.74 in 9.0 mi South 4.6 mph - N/A   Clear
11:00 PM -29.2 °F -46.2 °F -38.2 °F 62% 29.71 in 9.0 mi South 5.8 mph - N/A   Clear